CCA821 ZBAA-VTSP

Flight info

Callsign CCA821
Flight time N/A
Altitude 36100
Route RUSDO9Z RUSDO W45 NUPTI R343 WUY R474 TEBAK/K0870F361 R474 LAVOS/N0469F361 R474 BKK Y8 SAVSA SAVSA1D
Aircraft B38M/M-SDE1FGHILORVWXY/HB1

Departure

Time 2026-05-04 04:58
Airport Beijing Capital International Airport (ZBAA)

Arrival

Time N/A
Airport Phuket International Airport (VTSP)
Time Latitude Longitude Altitude Speed Heading
2026-05-04 02:56 40.07893 116.60129 127 ft 0 kts 203°
2026-05-04 04:47 40.07935 116.60152 121 ft 4 kts 206°
2026-05-04 04:47 40.07956 116.60173 121 ft 4 kts 240°
2026-05-04 04:47 40.07960 116.60204 123 ft 4 kts 284°
2026-05-04 04:47 40.07956 116.60220 121 ft 0 kts 293°
2026-05-04 04:53 40.07957 116.60217 127 ft 1 kts 293°
2026-05-04 04:53 40.07962 116.60203 122 ft 3 kts 293°
2026-05-04 04:53 40.07973 116.60169 127 ft 5 kts 291°
2026-05-04 04:53 40.07991 116.60113 123 ft 8 kts 292°
2026-05-04 04:54 40.07998 116.60032 127 ft 10 kts 266°
2026-05-04 04:54 40.07990 116.59928 125 ft 13 kts 269°
2026-05-04 04:54 40.08055 116.59858 125 ft 14 kts 353°
2026-05-04 04:54 40.08161 116.59840 123 ft 16 kts 352°
2026-05-04 04:55 40.08282 116.59822 125 ft 19 kts 353°
2026-05-04 04:55 40.08417 116.59801 124 ft 21 kts 354°
2026-05-04 04:55 40.08566 116.59777 123 ft 23 kts 353°
2026-05-04 04:55 40.08707 116.59756 124 ft 21 kts 352°
2026-05-04 04:56 40.08845 116.59733 125 ft 19 kts 352°
2026-05-04 04:56 40.08966 116.59696 125 ft 14 kts 311°
2026-05-04 04:56 40.08967 116.59577 124 ft 14 kts 245°
2026-05-04 04:56 40.08890 116.59497 125 ft 15 kts 189°
2026-05-04 04:57 40.08801 116.59506 124 ft 11 kts 173°
2026-05-04 04:57 40.08491 116.59549 125 ft 81 kts 173°
2026-05-04 04:57 40.07716 116.59675 123 ft 141 kts 173°
2026-05-04 04:57 40.06579 116.59854 205 ft 183 kts 174°
2026-05-04 04:58 40.05235 116.60092 500 ft 201 kts 175°
2026-05-04 04:58 40.03846 116.60296 1026 ft 205 kts 173°
2026-05-04 04:58 40.02365 116.60527 1477 ft 224 kts 172°
2026-05-04 04:58 40.00769 116.60779 2106 ft 232 kts 173°
2026-05-04 04:59 39.99149 116.61026 2713 ft 238 kts 173°
2026-05-04 04:59 39.97467 116.61285 3261 ft 249 kts 173°
2026-05-04 04:59 39.95722 116.61558 3795 ft 258 kts 174°
2026-05-04 04:59 39.93914 116.61839 4329 ft 264 kts 174°
2026-05-04 05:00 39.92275 116.62092 4791 ft 266 kts 174°
2026-05-04 05:00 39.90426 116.62383 5285 ft 269 kts 173°
2026-05-04 05:00 39.86689 116.62970 6456 ft 272 kts 173°
2026-05-04 05:01 39.84798 116.63259 6973 ft 275 kts 174°
2026-05-04 05:01 39.82877 116.63553 7443 ft 281 kts 174°
2026-05-04 05:01 39.80914 116.63852 8005 ft 287 kts 174°
2026-05-04 05:01 39.79006 116.64144 8550 ft 292 kts 174°
2026-05-04 05:02 39.76969 116.64453 9135 ft 297 kts 174°
2026-05-04 05:02 39.74904 116.64768 9738 ft 301 kts 175°
2026-05-04 05:02 39.72809 116.65087 10296 ft 306 kts 175°
2026-05-04 05:02 39.70708 116.65284 10813 ft 308 kts 188°
2026-05-04 05:03 39.68669 116.64589 11333 ft 302 kts 213°
2026-05-04 05:03 39.67025 116.62920 11849 ft 293 kts 237°
2026-05-04 05:04 39.65335 116.55599 13261 ft 294 kts 268°
2026-05-04 05:04 39.65096 116.52931 13725 ft 301 kts 269°
2026-05-04 05:04 39.64883 116.50201 14139 ft 308 kts 270°
2026-05-04 05:06 39.63495 116.29569 17141 ft 346 kts 270°
2026-05-04 05:06 39.63287 116.26422 17605 ft 350 kts 270°
2026-05-04 05:06 39.63077 116.23259 18068 ft 353 kts 270°
2026-05-04 05:07 39.62867 116.20083 18489 ft 355 kts 270°
2026-05-04 05:07 39.62653 116.16876 18890 ft 358 kts 270°
2026-05-04 05:07 39.62437 116.13663 19303 ft 360 kts 270°
2026-05-04 05:09 39.60594 115.86661 21905 ft 388 kts 272°
2026-05-04 05:09 39.60771 115.83219 22239 ft 378 kts 289°
2026-05-04 05:10 39.61708 115.80068 22585 ft 375 kts 300°
2026-05-04 05:10 39.62847 115.77082 22921 ft 376 kts 301°
2026-05-04 05:10 39.64066 115.74005 23254 ft 379 kts 301°
2026-05-04 05:10 39.65279 115.70999 23562 ft 381 kts 302°
2026-05-04 05:11 39.66540 115.67912 23872 ft 383 kts 302°
2026-05-04 05:11 39.67796 115.64854 24145 ft 385 kts 302°
2026-05-04 05:11 39.69067 115.61787 24457 ft 388 kts 302°
2026-05-04 05:11 39.70352 115.58687 24736 ft 391 kts 302°
2026-05-04 05:12 39.71626 115.55607 25010 ft 393 kts 302°
2026-05-04 05:12 39.72919 115.52476 25298 ft 394 kts 302°
2026-05-04 05:12 39.74151 115.49286 25609 ft 400 kts 295°
2026-05-04 05:12 39.74757 115.45716 25895 ft 414 kts 278°
2026-05-04 05:13 39.74530 115.41950 26138 ft 429 kts 263°
2026-05-04 05:13 39.73463 115.38251 26394 ft 443 kts 248°
2026-05-04 05:13 39.72051 115.34682 26594 ft 446 kts 250°
2026-05-04 05:13 39.70662 115.31064 26829 ft 447 kts 249°
2026-05-04 05:14 39.69261 115.27475 27105 ft 448 kts 249°
2026-05-04 05:14 39.67824 115.23838 27203 ft 452 kts 249°
2026-05-04 05:14 39.66386 115.20215 27539 ft 452 kts 249°
2026-05-04 05:14 39.64942 115.16586 27768 ft 455 kts 249°
2026-05-04 05:15 39.63481 115.12920 28027 ft 457 kts 249°
2026-05-04 05:15 39.62021 115.09264 28365 ft 457 kts 249°
2026-05-04 05:15 39.60559 115.05602 28670 ft 457 kts 249°
2026-05-04 05:15 39.59097 115.01950 28950 ft 455 kts 249°
2026-05-04 05:16 39.57641 114.98315 29239 ft 455 kts 249°
2026-05-04 05:16 39.56180 114.94673 29568 ft 455 kts 249°
2026-05-04 05:16 39.54721 114.91039 29895 ft 455 kts 249°
2026-05-04 05:16 39.53259 114.87401 30157 ft 455 kts 249°
2026-05-04 05:17 39.51798 114.83771 30429 ft 454 kts 249°
2026-05-04 05:17 39.50338 114.80147 30697 ft 454 kts 249°
2026-05-04 05:17 39.48877 114.76524 30978 ft 453 kts 249°
2026-05-04 05:17 39.47419 114.72916 31248 ft 452 kts 249°
2026-05-04 05:18 39.45961 114.69311 31520 ft 451 kts 249°
2026-05-04 05:18 39.44507 114.65720 31760 ft 451 kts 249°
2026-05-04 05:18 39.43053 114.62132 31973 ft 451 kts 249°
2026-05-04 05:18 39.41595 114.58539 32045 ft 452 kts 249°
2026-05-04 05:19 39.38683 114.51375 32032 ft 449 kts 249°
2026-05-04 05:19 39.35764 114.44229 32040 ft 450 kts 249°
2026-05-04 05:20 39.32836 114.37079 32037 ft 451 kts 248°
2026-05-04 05:20 39.29907 114.29919 32030 ft 451 kts 249°
2026-05-04 05:21 39.26975 114.22761 32025 ft 451 kts 249°
2026-05-04 05:21 39.23465 114.16012 32044 ft 465 kts 227°
2026-05-04 05:22 39.20812 114.13561 32046 ft 478 kts 211°
2026-05-04 05:22 39.17681 114.11998 32052 ft 486 kts 199°
2026-05-04 05:22 39.11167 114.09581 32065 ft 488 kts 199°
2026-05-04 05:23 39.04678 114.07239 32057 ft 487 kts 199°
2026-05-04 05:23 38.98161 114.04921 32073 ft 486 kts 199°
2026-05-04 05:24 38.91636 114.02607 32072 ft 485 kts 199°
2026-05-04 05:24 38.85135 114.00306 32074 ft 485 kts 199°
2026-05-04 05:25 38.78642 113.98013 32069 ft 483 kts 199°
2026-05-04 05:25 38.72147 113.95721 32080 ft 484 kts 199°
2026-05-04 05:26 38.65662 113.93438 32068 ft 482 kts 199°
2026-05-04 05:26 38.59200 113.91165 32086 ft 483 kts 199°
2026-05-04 05:28 38.33408 113.82143 32082 ft 480 kts 199°
2026-05-04 05:29 38.26968 113.79914 32065 ft 479 kts 199°
2026-05-04 05:29 38.20586 113.77709 32071 ft 478 kts 199°
2026-05-04 05:31 37.94947 113.68891 32067 ft 476 kts 199°
2026-05-04 05:32 37.88564 113.66705 32048 ft 475 kts 199°
2026-05-04 05:33 37.79021 113.63445 32058 ft 473 kts 199°
2026-05-04 05:33 37.72678 113.61283 32065 ft 472 kts 199°
2026-05-04 05:34 37.66342 113.59127 32070 ft 471 kts 199°
2026-05-04 05:34 37.60021 113.56980 32071 ft 471 kts 199°
2026-05-04 05:35 37.53695 113.54835 32080 ft 470 kts 199°
2026-05-04 05:35 37.47389 113.52701 32080 ft 470 kts 199°
2026-05-04 05:36 37.41080 113.50569 32082 ft 469 kts 199°
2026-05-04 05:36 37.35844 113.48803 32091 ft 468 kts 199°
2026-05-04 05:37 37.28507 113.46332 32092 ft 467 kts 199°
2026-05-04 05:37 37.23299 113.44581 32089 ft 466 kts 199°
2026-05-04 05:38 37.12893 113.41091 32095 ft 465 kts 199°
2026-05-04 05:38 37.06658 113.39004 32094 ft 464 kts 199°
2026-05-04 05:39 37.03534 113.37960 32263 ft 464 kts 199°
2026-05-04 05:39 36.97321 113.35885 32849 ft 460 kts 199°
2026-05-04 05:39 36.94239 113.34858 33164 ft 458 kts 199°
2026-05-04 05:40 36.88105 113.32815 33741 ft 455 kts 199°
2026-05-04 05:40 36.86036 113.32127 33930 ft 453 kts 199°
2026-05-04 05:40 36.83004 113.31119 34115 ft 452 kts 199°
2026-05-04 05:41 36.76922 113.29101 34096 ft 450 kts 199°
2026-05-04 05:41 36.70880 113.27098 34105 ft 450 kts 199°
2026-05-04 05:42 36.64821 113.25093 34096 ft 450 kts 199°
2026-05-04 05:42 36.58813 113.23108 34102 ft 450 kts 199°
2026-05-04 05:43 36.52730 113.21102 34107 ft 449 kts 199°
2026-05-04 05:45 36.28654 113.13190 34116 ft 447 kts 198°
2026-05-04 05:47 36.05617 113.02076 34125 ft 444 kts 206°
2026-05-04 05:47 35.99918 112.99112 34133 ft 444 kts 205°
2026-05-04 05:48 35.94220 112.96153 34131 ft 444 kts 205°
2026-05-04 05:48 35.88518 112.93197 34135 ft 445 kts 205°
2026-05-04 05:49 35.82807 112.90240 34131 ft 445 kts 205°
2026-05-04 05:49 35.77109 112.87282 34130 ft 444 kts 205°
2026-05-04 05:51 35.54397 112.75462 34128 ft 444 kts 205°
2026-05-04 05:52 35.48717 112.72502 34131 ft 443 kts 205°
2026-05-04 05:52 35.43041 112.69549 34127 ft 443 kts 205°
2026-05-04 05:54 35.20321 112.57777 34117 ft 443 kts 205°
2026-05-04 05:55 35.14646 112.54869 34116 ft 443 kts 205°
2026-05-04 05:55 35.08857 112.52255 34122 ft 444 kts 199°
2026-05-04 05:56 35.02982 112.50058 34121 ft 444 kts 199°
2026-05-04 05:56 34.97065 112.47881 34114 ft 444 kts 199°
2026-05-04 05:57 34.91109 112.45696 34118 ft 444 kts 199°
2026-05-04 05:57 34.85198 112.43532 34110 ft 444 kts 199°
2026-05-04 05:58 34.79293 112.41374 34113 ft 443 kts 199°
2026-05-04 05:58 34.73284 112.39782 34094 ft 445 kts 180°
2026-05-04 05:59 34.67077 112.40184 34117 ft 449 kts 178°
2026-05-04 05:59 34.60832 112.40660 34110 ft 449 kts 178°
2026-05-04 06:00 34.54604 112.41185 34108 ft 449 kts 178°
2026-05-04 06:00 34.48370 112.41719 34108 ft 449 kts 178°
2026-05-04 06:01 34.42139 112.42253 34110 ft 449 kts 178°
2026-05-04 06:03 34.17295 112.44371 34111 ft 448 kts 178°
2026-05-04 06:05 33.89304 112.46744 34095 ft 448 kts 179°
2026-05-04 06:06 33.83076 112.47270 34102 ft 449 kts 179°
2026-05-04 06:06 33.76855 112.47795 34103 ft 448 kts 179°
2026-05-04 06:07 33.70625 112.48319 34108 ft 448 kts 179°
2026-05-04 06:07 33.64407 112.48845 34100 ft 448 kts 179°
2026-05-04 06:08 33.58187 112.49375 34109 ft 448 kts 179°
2026-05-04 06:08 33.51962 112.49906 34103 ft 448 kts 179°
2026-05-04 06:09 33.45740 112.50435 34107 ft 448 kts 179°
2026-05-04 06:11 33.20876 112.52542 34104 ft 449 kts 179°
2026-05-04 06:13 32.95978 112.54640 34098 ft 448 kts 179°
2026-05-04 06:14 32.78165 112.50434 34100 ft 436 kts 199°
2026-05-04 06:14 32.75238 112.49480 34102 ft 435 kts 199°
2026-05-04 06:15 32.69401 112.47575 34098 ft 435 kts 200°
2026-05-04 06:15 32.63575 112.45676 34098 ft 434 kts 200°
2026-05-04 06:16 32.57762 112.43784 34097 ft 433 kts 200°
2026-05-04 06:16 32.51960 112.41898 34098 ft 432 kts 200°
2026-05-04 06:17 32.46175 112.40020 34097 ft 431 kts 200°
2026-05-04 06:17 32.40406 112.38151 34106 ft 430 kts 201°
2026-05-04 06:18 32.34671 112.36294 34101 ft 430 kts 201°
2026-05-04 06:20 32.11655 112.28867 34104 ft 426 kts 201°
2026-05-04 06:21 31.97078 112.25572 34101 ft 428 kts 197°
2026-05-04 06:22 31.91168 112.24356 34109 ft 427 kts 197°
2026-05-04 06:25 31.50414 112.16016 34114 ft 423 kts 198°
2026-05-04 06:26 31.45592 112.15034 34109 ft 423 kts 198°
2026-05-04 06:26 31.38853 112.13551 34115 ft 420 kts 200°
2026-05-04 06:27 31.25498 112.10267 34117 ft 421 kts 200°
2026-05-04 06:28 31.19757 112.08868 34117 ft 421 kts 200°
2026-05-04 06:28 31.14024 112.07472 34117 ft 420 kts 200°
2026-05-04 06:29 31.08295 112.06079 34114 ft 420 kts 200°
2026-05-04 06:29 31.02570 112.04688 34114 ft 421 kts 200°
2026-05-04 06:30 30.96842 112.03298 34117 ft 421 kts 200°
2026-05-04 06:30 30.91112 112.01910 34116 ft 421 kts 200°
2026-05-04 06:31 30.85371 112.00521 34116 ft 421 kts 200°
2026-05-04 06:31 30.79649 111.99138 34114 ft 421 kts 200°
2026-05-04 06:33 30.56733 111.93619 34118 ft 420 kts 200°
2026-05-04 06:34 30.51002 111.92244 34123 ft 420 kts 201°
2026-05-04 06:34 30.45317 111.90882 34123 ft 420 kts 201°
2026-05-04 06:36 30.22423 111.85411 34120 ft 420 kts 201°
2026-05-04 06:37 30.16707 111.84049 34122 ft 419 kts 201°
2026-05-04 06:37 30.11000 111.82691 34122 ft 419 kts 201°
2026-05-04 06:38 30.05297 111.81336 34119 ft 418 kts 201°
2026-05-04 06:40 29.82531 111.75941 34124 ft 417 kts 201°
2026-05-04 06:40 29.76850 111.74599 34122 ft 416 kts 201°
2026-05-04 06:41 29.71176 111.73259 34124 ft 416 kts 201°
2026-05-04 06:41 29.65511 111.71923 34122 ft 416 kts 201°
2026-05-04 06:42 29.59829 111.70586 34127 ft 417 kts 201°
2026-05-04 06:44 29.37099 111.65248 34538 ft 418 kts 202°
2026-05-04 06:44 29.34188 111.64789 34707 ft 430 kts 192°
2026-05-04 06:44 29.31199 111.64654 34861 ft 429 kts 194°
2026-05-04 06:45 29.28219 111.64472 34980 ft 431 kts 193°
2026-05-04 06:45 29.25212 111.64303 35138 ft 431 kts 193°
2026-05-04 06:45 29.22219 111.64141 35281 ft 431 kts 193°
2026-05-04 06:45 29.19221 111.63982 35430 ft 431 kts 194°
2026-05-04 06:46 29.16223 111.63823 35571 ft 431 kts 194°
2026-05-04 06:46 29.13229 111.63665 35712 ft 431 kts 194°
2026-05-04 06:46 29.10229 111.63506 35840 ft 431 kts 194°
2026-05-04 06:46 29.07237 111.63348 35957 ft 431 kts 194°
2026-05-04 06:48 28.86258 111.62243 36128 ft 431 kts 194°
2026-05-04 06:48 28.83286 111.61949 36131 ft 426 kts 197°
2026-05-04 06:50 28.59603 111.59400 36145 ft 427 kts 197°
2026-05-04 06:51 28.53670 111.58773 36134 ft 428 kts 197°
2026-05-04 06:51 28.47732 111.58145 36120 ft 428 kts 197°
2026-05-04 06:52 28.41839 111.57520 36132 ft 429 kts 197°
2026-05-04 06:52 28.35906 111.56891 36141 ft 429 kts 197°
2026-05-04 06:53 28.29956 111.56259 36134 ft 428 kts 197°
2026-05-04 06:53 28.24016 111.55631 36140 ft 430 kts 197°
2026-05-04 06:54 28.18075 111.55002 36143 ft 429 kts 197°
2026-05-04 06:54 28.12130 111.54374 36168 ft 430 kts 197°
2026-05-04 06:55 28.06180 111.53746 36174 ft 429 kts 197°
2026-05-04 06:55 28.00221 111.53118 36130 ft 429 kts 197°
2026-05-04 06:57 27.76419 111.50623 36154 ft 428 kts 197°
2026-05-04 06:58 27.70471 111.50001 36151 ft 429 kts 197°
2026-05-04 06:58 27.64532 111.49381 36161 ft 429 kts 196°
2026-05-04 06:59 27.58594 111.48762 36158 ft 428 kts 196°
2026-05-04 06:59 27.52700 111.48148 36167 ft 428 kts 196°
2026-05-04 07:01 27.29015 111.45687 36160 ft 426 kts 196°
2026-05-04 07:02 27.23114 111.45075 36169 ft 427 kts 196°
2026-05-04 07:02 27.17191 111.44462 36160 ft 426 kts 196°
2026-05-04 07:03 27.11287 111.43851 36168 ft 427 kts 196°
2026-05-04 07:03 27.05378 111.43241 36165 ft 426 kts 196°
2026-05-04 07:04 26.99476 111.42632 36169 ft 426 kts 196°
2026-05-04 07:04 26.93593 111.41958 36168 ft 418 kts 203°
2026-05-04 07:05 26.90962 111.40899 36163 ft 392 kts 219°
2026-05-04 07:05 26.88632 111.39348 36191 ft 390 kts 220°
2026-05-04 07:05 26.84023 111.36111 36180 ft 391 kts 221°
2026-05-04 07:06 26.77185 111.31135 36179 ft 391 kts 221°
2026-05-04 07:07 26.72628 111.27795 36154 ft 392 kts 221°
2026-05-04 07:09 26.54358 111.14667 36176 ft 390 kts 220°
2026-05-04 07:09 26.49739 111.11510 36185 ft 390 kts 220°
2026-05-04 07:10 26.45093 111.08335 36191 ft 392 kts 219°
2026-05-04 07:12 26.26457 110.95627 36203 ft 394 kts 220°
2026-05-04 07:12 26.21806 110.92466 36157 ft 390 kts 219°
2026-05-04 07:13 26.17940 110.89838 36199 ft 388 kts 220°
2026-05-04 07:13 26.13307 110.86691 36184 ft 393 kts 219°
2026-05-04 07:14 26.01673 110.78794 36189 ft 393 kts 219°
2026-05-04 07:15 25.96993 110.75617 36177 ft 394 kts 219°
2026-05-04 07:15 25.92324 110.72452 36184 ft 393 kts 219°
2026-05-04 07:16 25.87644 110.69282 36173 ft 394 kts 219°
2026-05-04 07:16 25.82975 110.66123 36173 ft 393 kts 219°
2026-05-04 07:17 25.78289 110.62954 36205 ft 396 kts 219°
2026-05-04 07:17 25.73611 110.59751 36200 ft 394 kts 220°
2026-05-04 07:18 25.68959 110.56523 36169 ft 395 kts 220°
2026-05-04 07:18 25.64320 110.53309 36192 ft 393 kts 220°
2026-05-04 07:19 25.59696 110.50110 36163 ft 394 kts 220°
2026-05-04 07:19 25.55083 110.46843 36174 ft 393 kts 221°
2026-05-04 07:20 25.50524 110.43485 36171 ft 394 kts 221°
2026-05-04 07:20 25.45947 110.40134 36169 ft 394 kts 221°
2026-05-04 07:22 25.27716 110.26599 36155 ft 395 kts 221°
2026-05-04 07:23 25.23154 110.23214 36149 ft 396 kts 221°
2026-05-04 07:23 25.18593 110.19818 36120 ft 395 kts 221°
2026-05-04 07:24 25.14032 110.16410 36149 ft 397 kts 221°
2026-05-04 07:24 25.09495 110.13025 36146 ft 396 kts 221°
2026-05-04 07:26 24.91173 109.99390 36163 ft 398 kts 221°
2026-05-04 07:27 24.86589 109.95987 36148 ft 397 kts 221°
2026-05-04 07:27 24.82000 109.92583 36141 ft 398 kts 221°
2026-05-04 07:28 24.77397 109.89171 36166 ft 400 kts 220°
2026-05-04 07:28 24.72802 109.85768 36158 ft 399 kts 221°
2026-05-04 07:29 24.68190 109.82354 36159 ft 400 kts 221°
2026-05-04 07:29 24.63589 109.78928 36148 ft 399 kts 221°
2026-05-04 07:30 24.58985 109.75504 36132 ft 400 kts 221°
2026-05-04 07:30 24.54362 109.72067 36153 ft 402 kts 220°
2026-05-04 07:31 24.49736 109.68631 36152 ft 401 kts 220°
2026-05-04 07:33 24.31153 109.54883 36156 ft 404 kts 220°
2026-05-04 07:33 24.26506 109.51458 36154 ft 403 kts 220°
2026-05-04 07:34 24.21846 109.48026 36152 ft 404 kts 220°
2026-05-04 07:34 24.17185 109.44596 36157 ft 404 kts 220°
2026-05-04 07:35 24.12537 109.41180 36154 ft 405 kts 220°
2026-05-04 07:35 24.07860 109.37745 36156 ft 405 kts 220°
2026-05-04 07:36 24.03178 109.34311 36156 ft 405 kts 220°
2026-05-04 07:38 23.84406 109.20565 36154 ft 407 kts 220°
2026-05-04 07:38 23.79705 109.17130 36154 ft 406 kts 220°
2026-05-04 07:39 23.75116 109.13555 36163 ft 403 kts 224°
2026-05-04 07:39 23.70719 109.09747 36154 ft 404 kts 224°
2026-05-04 07:40 23.66283 109.05962 36154 ft 405 kts 223°
2026-05-04 07:40 23.61841 109.02188 36152 ft 405 kts 223°
2026-05-04 07:41 23.57392 108.98409 36148 ft 405 kts 223°
2026-05-04 07:41 23.52971 108.94658 36157 ft 406 kts 223°
2026-05-04 07:42 23.48515 108.90882 36155 ft 406 kts 223°
2026-05-04 07:42 23.44049 108.87100 36134 ft 406 kts 223°
2026-05-04 07:43 23.39590 108.83326 36160 ft 407 kts 223°
2026-05-04 07:43 23.35109 108.79538 36159 ft 407 kts 223°
2026-05-04 07:44 23.30635 108.75761 36150 ft 407 kts 223°
2026-05-04 07:44 23.26156 108.71980 36159 ft 408 kts 223°
2026-05-04 07:45 23.21679 108.68186 36148 ft 409 kts 223°
2026-05-04 07:45 23.17186 108.64376 36153 ft 409 kts 223°
2026-05-04 07:46 23.12703 108.60577 36154 ft 409 kts 223°
2026-05-04 07:46 23.08213 108.56778 36150 ft 409 kts 223°
2026-05-04 07:47 23.03726 108.52986 36149 ft 409 kts 223°
2026-05-04 07:49 22.85716 108.37790 36144 ft 410 kts 223°
2026-05-04 07:49 22.81202 108.33990 36142 ft 410 kts 223°
2026-05-04 07:50 22.76724 108.30223 36143 ft 410 kts 223°
2026-05-04 07:50 22.72212 108.26431 36145 ft 410 kts 223°
2026-05-04 07:51 22.67711 108.22651 36150 ft 410 kts 223°
2026-05-04 07:51 22.63194 108.18861 36145 ft 410 kts 223°
2026-05-04 07:52 22.59313 108.14520 36139 ft 395 kts 246°
2026-05-04 07:52 22.57697 108.08887 36147 ft 395 kts 258°
2026-05-04 07:54 22.53402 107.85549 36145 ft 395 kts 259°
2026-05-04 07:55 22.52364 107.79704 36140 ft 396 kts 259°
2026-05-04 07:55 22.51324 107.73863 36140 ft 396 kts 259°
2026-05-04 07:56 22.50280 107.68011 36144 ft 396 kts 259°
2026-05-04 07:56 22.49236 107.62167 36135 ft 396 kts 259°
2026-05-04 07:57 22.48187 107.56307 36136 ft 397 kts 259°
2026-05-04 07:57 22.47138 107.50461 36139 ft 397 kts 259°
2026-05-04 07:58 22.46090 107.44637 36137 ft 397 kts 259°
2026-05-04 07:58 22.45033 107.38774 36135 ft 397 kts 259°
2026-05-04 07:59 22.43974 107.32914 36130 ft 397 kts 259°
2026-05-04 07:59 22.42914 107.27050 36131 ft 398 kts 259°
2026-05-04 08:00 22.41861 107.21178 36129 ft 398 kts 259°
2026-05-04 08:02 22.37808 106.98668 36120 ft 399 kts 259°
2026-05-04 08:02 22.36744 106.92787 36115 ft 399 kts 259°
2026-05-04 08:03 22.35098 106.87101 36103 ft 402 kts 239°
2026-05-04 08:03 22.31399 106.82500 36115 ft 410 kts 230°
2026-05-04 08:04 22.27390 106.78067 36106 ft 412 kts 229°
2026-05-04 08:04 22.23328 106.73703 36134 ft 412 kts 229°
2026-05-04 08:05 22.19247 106.69361 36128 ft 412 kts 229°
2026-05-04 08:05 22.14868 106.65350 36121 ft 415 kts 223°
2026-05-04 08:06 22.10389 106.61418 36108 ft 415 kts 224°
2026-05-04 08:06 22.05913 106.57470 36018 ft 414 kts 224°
2026-05-04 08:08 21.88072 106.41772 36005 ft 415 kts 224°
2026-05-04 08:11 21.67888 106.24080 36000 ft 417 kts 223°
2026-05-04 08:11 21.61148 106.18188 35996 ft 416 kts 223°
2026-05-04 08:12 21.56648 106.14258 36000 ft 417 kts 223°
2026-05-04 08:12 21.52139 106.10322 35996 ft 417 kts 223°
2026-05-04 08:13 21.47630 106.06391 35994 ft 417 kts 223°
2026-05-04 08:13 21.43127 106.02466 35993 ft 417 kts 223°
2026-05-04 08:14 21.38616 105.98540 35989 ft 418 kts 223°
2026-05-04 08:16 21.21233 105.82271 35987 ft 404 kts 247°
2026-05-04 08:16 21.19100 105.76692 35990 ft 406 kts 251°
2026-05-04 08:17 21.17130 105.71030 35992 ft 405 kts 251°
2026-05-04 08:17 21.15210 105.65359 35995 ft 405 kts 252°
2026-05-04 08:19 21.07557 105.42668 35998 ft 406 kts 251°
2026-05-04 08:20 21.05635 105.36986 35947 ft 404 kts 251°
2026-05-04 08:20 21.03717 105.31324 36019 ft 407 kts 251°
2026-05-04 08:21 21.01789 105.25638 36004 ft 406 kts 251°
2026-05-04 08:21 20.99855 105.19945 36006 ft 407 kts 251°
2026-05-04 08:22 20.97922 105.14259 36006 ft 407 kts 251°
2026-05-04 08:24 20.90160 104.91498 36013 ft 406 kts 251°
2026-05-04 08:24 20.88215 104.85810 36014 ft 407 kts 251°
2026-05-04 08:25 20.86270 104.80132 36025 ft 406 kts 251°
2026-05-04 08:25 20.84323 104.74452 36021 ft 407 kts 251°
2026-05-04 08:26 20.83168 104.71694 36006 ft 409 kts 239°
2026-05-04 08:27 20.67432 104.58165 35999 ft 419 kts 219°
2026-05-04 08:28 20.62712 104.54526 36015 ft 419 kts 219°
2026-05-04 08:28 20.57987 104.50889 36013 ft 418 kts 219°
2026-05-04 08:29 20.53280 104.47263 36011 ft 418 kts 220°
2026-05-04 08:31 20.34453 104.32621 36023 ft 419 kts 220°
2026-05-04 08:33 20.15672 104.17910 36014 ft 419 kts 220°
2026-05-04 08:35 19.96884 104.03237 35996 ft 421 kts 219°
2026-05-04 08:35 19.92156 103.99553 36003 ft 422 kts 219°
2026-05-04 08:37 19.75545 103.86627 35984 ft 423 kts 219°
2026-05-04 08:38 19.70801 103.82941 35984 ft 423 kts 219°
2026-05-04 08:38 19.66029 103.79237 35993 ft 426 kts 219°
2026-05-04 08:40 19.46960 103.64463 35987 ft 424 kts 219°
2026-05-04 08:41 19.42182 103.60780 35984 ft 425 kts 219°
2026-05-04 08:41 19.37384 103.57118 35985 ft 425 kts 218°
2026-05-04 08:42 19.32586 103.53454 35976 ft 426 kts 219°
2026-05-04 08:42 19.27773 103.49784 35981 ft 426 kts 219°
2026-05-04 08:43 19.22995 103.46141 35974 ft 426 kts 219°
2026-05-04 08:43 19.18186 103.42478 35970 ft 427 kts 218°
2026-05-04 08:44 19.13362 103.38806 35964 ft 427 kts 218°
2026-05-04 08:46 18.94057 103.24139 35957 ft 428 kts 218°
2026-05-04 08:46 18.89221 103.20471 35949 ft 427 kts 218°
2026-05-04 08:47 18.84394 103.16812 35951 ft 428 kts 218°
2026-05-04 08:47 18.79555 103.13148 35950 ft 428 kts 218°
2026-05-04 08:48 18.74718 103.09488 35943 ft 427 kts 218°
2026-05-04 08:48 18.69882 103.05831 35940 ft 428 kts 218°
2026-05-04 08:49 18.65053 103.02182 35937 ft 427 kts 218°
2026-05-04 08:50 18.48124 102.89411 35909 ft 429 kts 218°
2026-05-04 08:51 18.43270 102.85753 35904 ft 429 kts 218°
2026-05-04 08:51 18.39196 102.82688 35902 ft 429 kts 218°
2026-05-04 08:52 18.34338 102.79033 35895 ft 429 kts 218°
2026-05-04 08:52 18.29474 102.75376 35898 ft 430 kts 218°
2026-05-04 08:54 18.10011 102.60771 35859 ft 431 kts 218°
2026-05-04 08:55 18.05135 102.57116 35855 ft 431 kts 218°
2026-05-04 08:55 18.00079 102.53745 35842 ft 434 kts 203°
2026-05-04 09:01 17.40494 102.29629 35895 ft 438 kts 203°
2026-05-04 09:01 17.34802 102.27346 35895 ft 438 kts 203°
2026-05-04 09:02 17.29110 102.25065 35895 ft 438 kts 203°
2026-05-04 09:02 17.23422 102.22788 35898 ft 438 kts 203°
2026-05-04 09:03 17.17723 102.20506 35899 ft 438 kts 203°
2026-05-04 09:03 17.12023 102.18226 35904 ft 438 kts 203°
2026-05-04 09:04 17.06328 102.15950 35904 ft 439 kts 203°
2026-05-04 09:04 17.00628 102.13674 35905 ft 439 kts 203°
2026-05-04 09:05 16.94956 102.11410 35904 ft 439 kts 203°
2026-05-04 09:05 16.89260 102.09138 35904 ft 439 kts 203°
2026-05-04 09:06 16.83555 102.06864 35906 ft 439 kts 203°
2026-05-04 09:08 16.60889 101.97434 35920 ft 436 kts 209°
2026-05-04 09:08 16.55455 101.94588 35912 ft 437 kts 208°
2026-05-04 09:09 16.50005 101.91788 35907 ft 437 kts 208°
2026-05-04 09:09 16.44552 101.88997 35911 ft 437 kts 208°
2026-05-04 09:10 16.39088 101.86203 35910 ft 437 kts 208°
2026-05-04 09:10 16.33660 101.83429 35904 ft 437 kts 208°
2026-05-04 09:11 16.28201 101.80641 35900 ft 437 kts 208°
2026-05-04 09:11 16.22735 101.77852 35897 ft 438 kts 208°
2026-05-04 09:12 16.17261 101.75061 35893 ft 438 kts 208°
2026-05-04 09:14 15.95369 101.63912 35870 ft 438 kts 208°
2026-05-04 09:14 15.89888 101.61126 35868 ft 438 kts 208°
2026-05-04 09:15 15.84406 101.58339 35861 ft 438 kts 208°
2026-05-04 09:15 15.78924 101.55556 35854 ft 438 kts 208°
2026-05-04 09:17 15.54319 101.43081 35844 ft 437 kts 208°
2026-05-04 09:18 15.48854 101.40314 35847 ft 437 kts 208°
2026-05-04 09:18 15.43388 101.37549 35830 ft 437 kts 208°
2026-05-04 09:19 15.37931 101.34790 35834 ft 436 kts 208°
2026-05-04 09:19 15.32469 101.32031 35828 ft 436 kts 208°
2026-05-04 09:20 15.27014 101.29276 35831 ft 436 kts 208°
2026-05-04 09:20 15.21562 101.26525 35833 ft 436 kts 208°
2026-05-04 09:21 15.16107 101.23773 35832 ft 436 kts 208°
2026-05-04 09:21 15.10651 101.21022 35829 ft 436 kts 208°
2026-05-04 09:22 15.05198 101.18276 35839 ft 436 kts 208°
2026-05-04 09:22 14.99748 101.15531 35841 ft 436 kts 208°
2026-05-04 09:23 14.94284 101.12782 35841 ft 436 kts 208°
2026-05-04 09:23 14.88818 101.10032 35843 ft 437 kts 207°
2026-05-04 09:25 14.66946 100.98980 35847 ft 438 kts 207°
2026-05-04 09:26 14.61480 100.96197 35839 ft 439 kts 207°
2026-05-04 09:26 14.56004 100.93410 35832 ft 439 kts 207°
2026-05-04 09:27 14.50554 100.90639 35823 ft 440 kts 207°
2026-05-04 09:27 14.45065 100.87849 35825 ft 440 kts 207°
2026-05-04 09:28 14.39574 100.85060 35837 ft 440 kts 207°
2026-05-04 09:28 14.34038 100.82249 35832 ft 441 kts 207°
2026-05-04 09:29 14.28565 100.79472 35831 ft 441 kts 207°
2026-05-04 09:29 14.23049 100.76675 35830 ft 442 kts 207°
2026-05-04 09:30 14.17532 100.73879 35831 ft 443 kts 207°
2026-05-04 09:30 14.11991 100.71072 35823 ft 444 kts 207°
2026-05-04 09:31 14.06442 100.68263 35825 ft 445 kts 207°
2026-05-04 09:31 14.00891 100.65454 35824 ft 446 kts 207°
2026-05-04 09:32 13.95352 100.62652 35831 ft 446 kts 207°
2026-05-04 09:34 13.71808 100.54368 35802 ft 450 kts 197°
2026-05-04 09:34 13.65794 100.52569 35812 ft 450 kts 197°
2026-05-04 09:35 13.59775 100.50771 35812 ft 451 kts 198°
2026-05-04 09:35 13.53749 100.48971 35815 ft 451 kts 198°
2026-05-04 09:37 13.29658 100.41783 35811 ft 450 kts 197°
2026-05-04 09:38 13.23643 100.39991 35807 ft 450 kts 197°
2026-05-04 09:38 13.17964 100.37487 35795 ft 442 kts 221°
2026-05-04 09:39 13.13527 100.33119 35793 ft 444 kts 226°
2026-05-04 09:39 13.09909 100.29392 35805 ft 443 kts 226°
2026-05-04 09:40 13.04855 100.24125 35806 ft 443 kts 226°
2026-05-04 09:40 13.03423 100.22631 35793 ft 443 kts 226°